EW2270 Weather Reports


time (UTC)temp
F
wind
direction
speed
knots
gust
knots
rain 1hr
in
rain 24hr
in
rain mn
in
humidity
%
barometer
mb
20260506004544 78 37 3.5 7.8 0.00 0.00 0.00 36 1008.6
20260506003042 77 82 3.5 9.6 0.00 0.00 0.00 37 1008.6
20260506001542 77 34 7.8 11.3 0.00 0.00 0.00 34 1008.6
20260506000041 78 352 7.0 12.2 0.00 0.00 0.00 34 1008.8
20260505234547 78 10 7.8 13.9 0.00 0.00 0.00 34 1008.9
20260505233038 78 330 6.1 11.3 0.00 0.00 0.00 35 1008.9
20260505231549 78 18 4.3 9.6 0.00 0.00 0.00 36 1008.9
20260505230050 78 20 4.3 9.6 0.00 0.00 0.00 36 1009.0
20260505224536 78 344 4.3 7.8 0.00 0.00 0.00 35 1009.1
20260505223032 77 8 1.7 8.7 0.00 0.00 0.00 36 1009.1
20260505221531 77 304 6.1 10.4 0.00 0.00 0.00 36 1009.2
20260505220032 77 311 5.2 9.6 0.00 0.00 0.00 36 1009.4
20260505214528 77 1 2.6 8.7 0.00 0.00 0.00 36 1009.5
20260505213025 77 331 4.3 10.4 0.00 0.00 0.00 39 1009.6
20260505211525 76 307 5.2 7.8 0.00 0.00 0.00 38 1009.7
20260505210024 76 313 4.3 7.0 0.00 0.00 0.00 39 1009.7
20260505204521 75 340 3.5 8.7 0.00 0.00 0.00 40 1009.8
20260505203021 75 323 4.3 9.6 0.00 0.00 0.00 43 1009.9
20260505201517 74 45 0.0 7.0 0.00 0.00 0.00 45 1010.0
20260505200018 74 284 4.3 7.8 0.00 0.00 0.00 45 1010.0
20260505194517 73 278 4.3 7.8 0.00 0.00 0.00 44 1010.1
20260505193013 73 219 4.3 7.8 0.00 0.00 0.00 45 1010.1
20260505191514 72 229 4.3 9.6 0.00 0.00 0.00 45 1010.3
20260505190011 72 308 5.2 9.6 0.00 0.00 0.00 49 1010.2
20260505184509 72 283 6.1 11.3 0.00 0.00 0.00 48 1010.4
20260505183010 71 305 2.6 9.6 0.00 0.00 0.00 48 1010.3
20260505181507 71 254 7.0 10.4 0.00 0.00 0.00 53 1010.3
20260505180008 71 238 3.5 6.1 0.00 0.00 0.00 51 1010.2
20260505174502 70 271 1.7 8.7 0.00 0.00 0.00 53 1010.3
20260505173202 69 274 1.7 7.0 0.00 0.00 0.00 53 1010.3
20260505171557 69 245 0.0 7.0 0.00 0.00 0.00 55 1010.3
20260505170057 68 255 3.5 7.0 0.00 0.00 0.00 56 1010.3
20260505164553 67 323 2.6 6.1 0.00 0.00 0.00 58 1010.2
20260505163050 67 292 1.7 6.1 0.00 0.00 0.00 57 1010.1
20260505161552 66 309 3.5 5.2 0.00 0.00 0.00 59 1010.1
20260505153040 65 5 0.0 0.9 0.00 0.00 0.00 64 1010.0
20260505151536 62 352 0.0 2.6 0.00 0.00 0.00 69 1010.0
20260505124516 48 122 0.0 1.7 0.00 0.00 0.00 88 1008.6
20260505123023 48 122 0.0 0.9 0.00 0.00 0.00 87 1008.5
20260505121507 49 122 0.9 1.7 0.00 0.00 0.00 85 1008.3
20260505120015 50 121 0.0 0.9 0.00 0.00 0.00 85 1008.1
20260505114503 50 121 0.0 0.9 0.00 0.00 0.00 84 1008.0
20260505113059 51 121 0.0 0.9 0.00 0.00 0.00 83 1007.9
20260505111556 52 121 0.0 0.9 0.00 0.00 0.00 81 1007.7
20260505101605 54 121 0.0 0.0 0.00 0.00 0.00 76 1007.2
20260505094547 57 121 1.7 2.6 0.00 0.00 0.00 69 1007.1
20260505093055 55 121 0.9 2.6 0.00 0.00 0.00 72 1007.0
20260505091544 56 121 0.0 0.9 0.00 0.00 0.00 72 1006.9
20260505090043 55 121 0.0 0.9 0.00 0.00 0.00 70 1006.9
20260505084542 55 121 0.0 0.9 0.00 0.00 0.00 71 1006.8
20260505083041 54 121 0.0 0.9 0.00 0.00 0.00 73 1006.9
20260505081544 55 146 0.9 2.6 0.00 0.00 0.00 71 1006.8
20260505080047 56 118 0.9 2.6 0.00 0.00 0.00 70 1006.7
20260505074536 56 118 0.0 0.9 0.00 0.00 0.00 69 1006.7
20260505073038 56 118 0.9 3.5 0.00 0.00 0.00 70 1006.6
20260505071529 52 119 1.7 3.5 0.00 0.00 0.00 80 1006.3
20260505070026 52 136 0.9 1.7 0.00 0.00 0.00 81 1006.2
20260505064526 53 105 0.0 1.7 0.00 0.00 0.00 79 1006.1
20260505063025 53 105 0.9 4.3 0.00 0.00 0.00 77 1005.9
20260505061528 55 252 0.9 4.3 0.00 0.00 0.00 72 1005.9
20260505060025 58 269 1.7 2.6 0.00 0.00 0.00 67 1005.6
20260505054524 58 269 1.7 2.6 0.00 0.00 0.00 69 1005.5
20260505053034 58 269 0.9 1.7 0.00 0.00 0.00 68 1005.4
20260505051536 59 269 0.0 0.9 0.00 0.00 0.00 63 1005.4
20260505041523 61 264 2.6 3.5 0.00 0.00 0.00 60 1004.9
20260505040020 62 113 0.9 3.5 0.00 0.00 0.00 59 1004.8
20260505034519 61 114 1.7 3.5 0.00 0.00 0.00 61 1004.5
20260505033019 61 118 1.7 3.5 0.00 0.00 0.00 64 1004.4
20260505031521 65 107 1.7 3.5 0.00 0.00 0.00 60 1004.4
20260505030018 68 110 0.9 2.6 0.00 0.00 0.00 56 1004.3
20260505024518 74 97 2.6 4.3 0.00 0.00 0.00 41 1004.3
20260505023020 76 101 2.6 2.6 0.00 0.00 0.00 38 1004.3
20260505021514 77 79 0.0 3.5 0.00 0.00 0.00 34 1004.4
20260505020013 78 74 1.7 4.3 0.00 0.00 0.00 34 1004.5
20260505014513 79 49 4.3 7.0 0.00 0.00 0.00 30 1004.5
20260505013010 79 47 4.3 7.8 0.00 0.00 0.00 29 1004.7
20260505011510 80 24 6.1 9.6 0.00 0.00 0.00 28 1004.8
20260505010016 80 338 5.2 11.3 0.00 0.00 0.00 29 1004.9